{"data":{"norad_id":48119,"intl_designator":"2021-027AD","name":"STARLINK-2459","alt_names":[],"object_type":"PAYLOAD","status":"ACTIVE","operator":null,"country":"US","launch_date":"2021-04-07","launch_site_code":"AFETR","launch_vehicle":null,"mission":null,"orbit_class":"UNKNOWN","rcs_meters":null,"size_class":null,"mass_kg":null,"dimensions":null,"purposes":["comms"],"wikipedia_slug":null,"has_3d_model":false,"image_url":null,"decayed_at":null,"tle_current":{"epoch":"2026-05-25T01:19:59.716128Z","epoch_age_seconds":74201,"freshness":"FRESH","line1":"1 48119U 21027AD  26145.05555227  .00001509  00000+0  60363-4 0  9990","line2":"2 48119  53.1576 157.2355 0001247  89.6213 270.4931 15.31710652284374","mean_motion":15.31710652,"eccentricity":0.0001247,"inclination_deg":53.1576,"raan_deg":157.2355,"arg_perigee_deg":89.6213,"mean_anomaly_deg":270.4931,"bstar":6.0363e-5,"rev_number":28437,"period_min":94.012534163665,"perigee_km":469.85419135023,"apogee_km":471.56229335367,"semimajor_km":6848.8452423519,"source":"CELESTRAK","updated_at":"2026-05-25T13:38:16.645545Z"}}}